SENTINEL-3A

Last updated on Tue Sep 22 2026 00:02:53 GMT+0000 (Coordinated Universal Time)

1 41335U 16011A 26264.57499443 .00000023 00000+0 27741-4 0 9999 2 41335 98.6275 330.5633 0001172 106.6413 253.4897 14.26735856551804
UTC large
Height (km)
Speed (km/s)
/
Latitude / Longitude
Inclination (degrees)
Orbital Period (minutes)
Azimuth
Elevation
Range (km)
Doppler Factor

Next 0 passes for location: London (51.5072 / 0.1276)

No passes found over London.
SENTINEL-3A